Location: Asheville, NC
(35.6000°N, 82.5500°W)
Time: 04:53:05

XW-2B - Pass Details

Date: 06 January 2018
Orbit: 511 x 530 km, 97.5° (Epoch: 20 March)

Event Time Altitude Azimuth Distance (km) Brightness Sun altitude
Rises 05:38:20 0° 33° (NNE) 2,657 ? -24.2°
Reaches altitude 10° 05:41:09 10° 56° (NE) 1,759 ? -23.6°
Maximum altitude 05:43:29 16° 94° (E) 1,431 ? -23.2°
Drops below altitude 10° 05:45:48 10° 132° (SE) 1,743 ? -22.7°
Sets 05:48:34 0° 155° (SSE) 2,620 ? -22.1°
